Flag for U.S.A. Weather past 2 weeks in Bismarck, North Dakota, U.S.A.

Now
19 °F

Sunny.


Feels Like: 7 °F
Forecast: 8 / 18 °F
Wind: 12 mph from Southeast

Location: Bismarck Municipal Airport

Current Time: Dec 17, 2014 at 3:31:04 PM

Latest Report: Dec 17, 2014 at 2:52 PM


Visibility: 10 mi

Pressure: 30.29 "Hg

Humidity: 68%

Dew point: 10 °F

Location of BismarckLocation

Historic Weather in Bismarck — Graph

°F

Bismarck temperature yesterday

Maximum temperature yesterday: 22 °F (at 12:52 AM)
Minimum temperature yesterday: 14 °F (at 11:52 PM)
Average temperature yesterday: 19 °F

Past Weeks' High & Low Weather Summary

 TemperatureHumidityPressure
High48 °F (Dec 12, 2:52 PM)100% (Dec 11, 9:00 PM)30.58 "Hg (Dec 11, 9:00 PM)
Low-1 °F (Dec 4, 7:52 AM)56% (Dec 12, 2:52 PM)29.70 "Hg (Dec 14, 4:00 AM)
Average24 °F83%30.15 "Hg
* Reported Dec 2 1:52 PM — Dec 17 1:52 PM, Bismarck, Weather by CustomWeather, © 2014

Note: Actual official high and low records may vary slightly from our data, if they occured in-between our weather recording intervals... More about our weather records

Advertising

Bismarck weather history for previous 24 hours

 ConditionsComfort  
Time TempWeatherWind HumidityBarometerVisibility
1:52 PM
Dec 17
19 °FSunny.10 mph68%30.31 "Hg10 mi
12:52 PM17 °FScattered clouds.10 mph70%30.34 "Hg10 mi
11:52 AM15 °FOvercast.7 mph77%30.37 "Hg9 mi
10:52 AM14 °FOvercast.7 mph80%30.40 "Hg6 mi
9:52 AM14 °FLight snow. Overcast.9 mph80%30.40 "Hg4 mi
8:52 AM14 °FLight snow. Ice fog.6 mph84%30.38 "Hg4 mi
7:52 AM14 °FOvercast.8 mph84%30.38 "Hg9 mi
6:52 AM14 °FOvercast.8 mph84%30.39 "Hg10 mi
5:52 AM14 °FLight snow. Ice fog.5 mph87%30.38 "Hg6 mi
4:52 AM14 °FOvercast.6 mph84%30.39 "Hg10 mi
3:52 AM14 °FLight snow. Overcast.6 mph84%30.39 "Hg7 mi
2:52 AM14 °FOvercast.5 mph84%30.40 "Hg9 mi
1:52 AM14 °FOvercast.6 mph87%30.42 "Hg10 mi
12:52 AM14 °FOvercast.8 mph87%30.41 "Hg10 mi
11:52 PM
Dec 16
14 °FOvercast.7 mph87%30.42 "Hg10 mi
10:52 PM15 °FOvercast.7 mph83%30.42 "Hg10 mi
9:52 PM16 °FOvercast.7 mph80%30.42 "Hg10 mi
8:52 PM17 °FOvercast.7 mph76%30.43 "Hg10 mi
7:52 PM18 °FOvercast.5 mph74%30.44 "Hg10 mi
6:52 PM18 °FLight snow. Overcast.7 mph77%30.43 "Hg8 mi
5:52 PM19 °FOvercast.6 mph71%30.42 "Hg10 mi
4:52 PM20 °FOvercast.6 mph68%30.41 "Hg10 mi
3:52 PM20 °FOvercast.8 mph68%30.41 "Hg10 mi
Weather by CustomWeather, © 2014

See weather overviewHow to use our weather pages